Miscellaneous Local Product
Issued by NWS Hastings, NE

Home | Current Version | Previous Version | Graphics & Text | Print | Product List | Glossary On
Versions: 1 2 3 4 5 6 7 8 9 10 11 12 13 14 15 16 17 18 19 20 21 22 23 24 25 26 27 28 29 30 31 32 33 34 35 36 37 38 39 40 41 42 43 44 45 46 47 48 49 50
000
AXUS43 KGID 231902
MISGRI

GID CWA HOURLY WEATHER ROUNDUP
NATIONAL WEATHER SERVICE HASTINGS NE
200 PM CDT MON APR 23 2018

NOTE: "FAIR" INDICATES FEW OR NO CLOUDS BELOW 12,000 FEET WITH NO
SIGNIFICANT WEATHER AND/OR OBSTRUCTIONS TO VISIBILITY.

...SOUTH CENTRAL NEBRASKA...

CITY           SKY/WX    TMP DP  RH WIND       PRES   REMARKS
GRAND ISLAND   SUNNY     67  39  35 E10       30.14F
KEARNEY        SUNNY     67  39  35 E12       30.14F
HASTINGS       SUNNY     64  38  38 S5        30.14F
ORD            PTSUNNY   68  37  32 S9        30.12F
YORK             N/A     70  36  28 CALM      30.13F
AURORA         PTSUNNY   66  35  32 CALM      30.13F
LEXINGTON      MOSUNNY   66  40  37 S13       30.13F
HOLDREGE       MOSUNNY   65  39  37 SE12G18   30.13F
HEBRON         SUNNY     70  35  27 CALM      30.12F

...NEBRASKA PANHANDLE...

CITY           SKY/WX    TMP DP  RH WIND       PRES   REMARKS
CHADRON        SUNNY     68  40  35 SE17      30.01F
ALLIANCE       MOSUNNY   63  40  42 S23       30.06F
SCOTTSBLUFF    SUNNY     68  42  38 SE20G25   30.02F
SIDNEY         PTSUNNY   63  40  42 S18G24    30.07F

...WESTERN AND NORTH CENTRAL NEBRASKA...

CITY           SKY/WX    TMP DP  RH WIND       PRES   REMARKS
VALENTINE      MOSUNNY   68  38  33 S16G26    30.11F
AINSWORTH      MOSUNNY   64  41  42 S12       30.12F
ONEILL         PTSUNNY   71  35  26 SE10G17   30.14F
BROKEN BOW     MOSUNNY   66  39  37 SE13G20   30.13F
IMPERIAL       SUNNY     64  39  39 SE14G22   30.10F
NORTH PLATTE   SUNNY     67  42  40 S8G20     30.11F
MCCOOK         SUNNY     66  42  41 S12G20    30.12F

...EASTERN NEBRASKA...

CITY           SKY/WX    TMP DP  RH WIND       PRES   REMARKS
NORFOLK        SUNNY     69  32  25 VRB6      30.13F
SO SIOUX CITY  SUNNY     70  29  21 E7        30.14F
TEKAMAH        SUNNY     71  27  19 VRB3G18   30.13F
COLUMBUS       SUNNY     69  36  29 SE9       30.14F
ALBION         SUNNY     69  37  31 SE3G16    30.14F
OMAHA EPPLEY   MOSUNNY   73  29  19 NE9       30.12F
MILLARD        SUNNY     70  32  24 E3        30.13F
LINCOLN        SUNNY     72  30  21 NE7       30.14F
NEBRASKA CITY  SUNNY     71  31  22 NE3G9     30.11F
BEATRICE       SUNNY     72  34  24 E13G18    30.12F
FALLS CITY     SUNNY     73  32  22 VRB7G17   30.09F

...NORTHERN KANSAS...

CITY           SKY/WX    TMP DP  RH WIND       PRES   REMARKS
GOODLAND       SUNNY     63  38  39 S15G29    30.11F
HILL CITY      PTSUNNY   66  41  40 VRB5      30.13F
NORTON         PTCLDY    70  39  32 E6G24     30.13F
PHILLIPSBURG   SUNNY     70  36  28 E8        30.13F
SMITH CENTER   SUNNY     70  36  28 SE8       30.13F
BELOIT         SUNNY     59  30  33 CALM      30.12F
HAYS           SUNNY     66  39  37 NE8       30.12F
RUSSELL        SUNNY     69  40  34 MISG      30.11F
CONCORDIA      SUNNY     70  32  24 E8G18     30.11F
SALINA         SUNNY     72  36  26 NE5       30.11F
TOPEKA         SUNNY     75  38  26 NE16G22   30.06F



USA.gov is the U.S. government's official web portal to all federal, state and local government web resources and services.